Location: Mason Neck State Park
(38.6428°N, 77.1981°W)
Time: 15:27:53
(UTC-04:00)

Daily predictions for brighter satellites

Satellite Brightness Start Highest point End
(mag) Time Altitude Azimuth Time Altitude Azimuth Time Altitude Azimuth
Cosmos 1606 Rocket 3.9 19:25:41 10° SSE 19:29:49 44° E 19:33:56 10° NNE
Cosmos 1953 Rocket 4.2 19:27:55 10° NNE 19:31:52 33° ENE 19:35:47 10° SE
Cosmos 332 Rocket 3.8 19:28:19 10° SSW 19:33:12 85° ESE 19:38:06 10° NNE
Geosat 4.1 19:28:44 10° SE 19:33:41 63° ENE 19:38:40 10° NNW
ATLAS CENTAUR R/B 4.4 19:20:03 10° NW 19:36:26 49° NNE 19:42:01 10° E
Cosmos 389 Rocket 2.5 19:35:06 10° S 19:38:33 56° E 19:41:59 10° NNE
Cosmos 371 Rocket 3.3 19:34:14 10° SSW 19:39:05 81° ESE 19:43:59 10° NNE
Meteor 1-15 Rocket 4.4 19:33:35 10° S 19:39:30 89° E 19:45:22 10° N
FENGYUN 3A 3.6 19:39:55 10° SSE 19:45:15 77° ENE 19:50:37 10° N
Cosmos 1707 3.3 19:41:53 10° N 19:45:35 38° E 19:49:15 10° SSE
Cosmos 2369 Rocket 2.5 19:41:48 10° NNW 19:47:27 71° WSW 19:53:00 10° SSE
Cosmos 1825 Rocket 3.5 19:47:14 10° N 19:51:40 84° E 19:56:07 10° S
Cosmos 2298 Rocket 4.2 19:46:54 10° N 19:52:09 55° ENE 19:57:22 10° SSE
Cosmos 468 Rocket 4.1 19:47:31 10° SSW 19:52:42 83° WNW 19:57:59 10° NNE
Cosmos 841 Rocket 3.8 19:49:11 10° S 19:53:57 41° ESE 19:58:46 10° NNE
OE (NEXTSAT) 4.3 19:51:47 10° WNW 19:55:20 85° NNE 19:58:09 15° ESE
USA 229 DEB 3.8 19:48:25 10° NNW 19:55:37 75° NE 20:02:57 10° SE
USA 229 3.8 19:48:31 10° NNW 19:55:43 74° NE 20:03:02 10° SE
Cosmos 1937 Rocket 3.6 19:50:44 10° N 19:55:59 59° ENE 20:01:10 10° SSE
Cosmos 2181 Rocket 3.9 19:52:34 10° N 19:58:47 74° E 20:04:54 10° SSE
Cosmos 1340 Rocket 2.8 19:55:00 10° N 19:59:03 78° E 20:03:08 10° SSE
Cosmos 1271 Rocket 3.6 19:59:01 10° SSW 20:02:40 52° W 20:06:25 10° N
NOSS 3-1 (C) 4.3 20:03:02 10° NNW 20:10:28 53° NE 20:17:12 16° ESE
HJ-1C 3.3 20:07:42 10° SSE 20:11:00 64° ENE 20:14:20 10° N
Cosmos 1356 Rocket 3.9 20:09:04 10° N 20:13:10 42° ENE 20:16:30 14° SE
SL-08 ROCKET BODY 4.3 20:07:51 10° S 20:13:42 81° E 20:19:39 10° N
Cosmos 1763 Rocket 3.4 20:10:52 10° SSW 20:15:57 90° SSW 20:21:07 10° NNE
Cosmos 2074 Rocket 4.0 20:10:25 10° S 20:16:30 59° E 20:22:34 10° NNE
Cosmos 1378 3.1 20:12:43 10° N 20:16:31 88° E 20:20:17 10° S
Thor Agena Rocket 4.4 20:14:16 10° N 20:19:23 54° WNW 20:24:26 10° SSW
CZ-2D R/B 3.5 20:16:53 18° SE 20:19:26 47° ENE 20:23:06 10° N
Cosmos 540 Rocket 3.9 20:17:52 10° SSE 20:22:29 36° ESE 20:27:08 10° NE
Cosmos 1758 Rocket 4.3 20:18:48 10° NNW 20:23:13 56° W 20:27:36 10° S
Cosmos 1544 3.5 20:23:42 26° SE 20:25:07 38° E 20:28:30 10° NNE
Resurs 1-3 3.9 20:24:24 24° SE 20:26:38 44° ENE 20:30:49 10° N
SJ-6B 3.1 20:23:23 10° S 20:27:26 69° W 20:31:24 10° NNW
Meteor 1-24 Rocket 3.8 20:24:00 10° N 20:29:57 63° ENE 20:35:32 11° SSE
Cosmos 304 Rocket 3.6 20:25:12 10° SSW 20:29:58 83° ESE 20:34:48 10° NNE
Cosmos 482 Debris 3.7 20:28:19 10° NW 20:31:54 58° SW 20:32:22 47° S
Spot 2 Rocket 3.5 20:35:49 25° SE 20:38:37 58° ENE 20:43:34 10° N
Cosmos 836 Rocket 4.5 20:35:52 10° S 20:41:02 59° ESE 20:46:14 10° NNE
Resurs 01 Rocket 1.5 20:40:30 27° SSE 20:42:54 74° ENE 20:47:20 10° N
GEOS 3 Rocket 3.7 20:37:45 10° NE 20:43:02 53° ESE 20:48:15 10° SSW
Nadezhda 3 Rocket 4.3 20:39:12 10° N 20:45:14 45° ENE 20:47:19 34° ESE
Milstar 3 Cent rocket 3.5 20:42:22 10° SSW 20:45:32 18° SSE 20:45:32 18° SSE
USA 186 3.9 20:51:12 14° N 20:51:12 14° N 20:51:38 10° N
Cosmos 2184 Rocket 4.2 20:44:29 10° S 20:50:46 77° W 20:57:08 10° N
FALCON 9 R/B 2.2 20:48:41 10° WSW 20:51:59 56° S 20:53:49 39° ESE
Cosmos 1943 Rocket 3.8 20:47:23 10° NW 20:52:19 33° WSW 20:57:16 10° SSW
GP-B 3.0 20:48:46 10° N 20:53:12 66° E 20:54:02 53° SE
MOS 1-B Rocket 3.9 20:52:11 19° SSE 20:56:53 80° ENE 21:02:40 10° N
Cosmos 1610 Rocket 4.4 20:53:00 10° S 20:59:20 87° E 21:05:46 10° N
Cosmos 1125 Rocket 3.5 20:57:19 10° NNW 21:02:35 62° ENE 21:03:08 58° E
Cosmos 1812 Rocket 3.5 21:04:33 46° S 21:05:52 89° W 21:10:21 10° N
Envisat 3.0 21:08:43 38° S 21:10:41 76° WSW 21:15:48 10° NNW
Cosmos 1939 Rocket 3.9 21:18:19 39° NNW 21:18:19 39° NNW 21:20:50 10° NNW
COSMOS 2406 3.7 21:13:01 10° SW 21:18:38 61° WNW 21:24:20 10° NNE
Meteor 1-21 Rocket 4.4 21:14:16 10° N 21:19:24 56° NE 21:19:24 56° NE
Cosmos 372 Rocket 3.9 21:16:01 10° NNW 21:21:07 79° NE 21:21:07 79° NE
Cosmos 962 Rocket 4.5 21:35:23 50° SSW 21:37:13 84° W 21:43:38 10° N
ATLAS 2AS CENTAUR R/B 3.8 21:34:54 10° NNW 21:42:06 35° NE 21:42:18 35° NE
NOSS 3-1 (A) 4.5 21:43:36 10° NW 21:51:14 58° WSW 21:53:33 45° SSW
ATLAS 2AS CENTAUR R/B 4.4 23:25:49 10° NW 23:29:43 31° NW 23:29:43 31° NW
